Regional Weather Roundup
Issued by NWS

Home | Current Version | Previous Version | Graphics & Text | Print | Product List | Glossary Off
Versions: 1 2 3 4 5 6 7 8 9 10 11 12 13 14 15 16 17 18 19 20 21 22 23 24 25 26 27 28 29 30 31 32 33 34 35 36 37 38 39 40 41 42 43 44 45 46 47 48 49 50

458
ASUS43 KLSX 300410
RWRMO

WEATHER SUMMARY FOR MISSOURI
NATIONAL WEATHER SERVICE SPRINGFIELD MO
1100 PM CDT SAT APR 29 2017

NOTE: "FAIR" INDICATES FEW OR NO CLOUDS BELOW 12,000 FEET WITH NO
       SIGNIFICANT WEATHER AND/OR OBSTRUCTIONS TO VISIBILITY.
       CURRENT SKY AND/OR WEATHER CONDITIONS ARE NOT AVAILABLE FOR
       CHILLICOTHE AND FARMINGTON.

MOZ001>031-035>038-043-044-053-054-300500-
...NORTHERN AND WESTERN MISSOURI...

CITY           SKY/WX    TMP DP  RH WIND       PRES   REMARKS
KANSAS CTY INT LGT RAIN  43  42  97 E28G36    29.74F
KANSAS C DTWN  RAIN     N/A N/A N/A E16G26    29.81F
LEE`S SUMMIT   RAIN      44  44 100 NE12      29.85R
ST JOSEPH      CLOUDY    44  44 100 N14G23    29.89R
CHILLICOTHE      N/A     44  42  93 VRB5      29.90F
KIRKSVILLE     LGT RAIN  42  31  64 NE13      29.90F

$$
MOZ066>068-077>081-088>096-101>105-300500-
...SOUTHWEST MISSOURI...

CITY           SKY/WX    TMP DP  RH WIND       PRES   REMARKS
SPRINGFIELD    RAIN      64  62  93 SE7       29.73R FOG
JOPLIN         RAIN      59  58  96 NE10G21   29.69F FOG
BRANSON        LGT RAIN  63  63 100 E10       29.73F

$$
MOZ032>034-039>042-045>050-055>058-069>072-300500-
...CENTRAL MISSOURI...

CITY           SKY/WX    TMP DP  RH WIND       PRES   REMARKS
COLUMBIA       CLOUDY    50  50 100 NE7       29.81R
JEFFERSON CITY LGT RAIN  55  52  89 CALM      29.81R
ROLLA          RAIN      60  32  34 E14G23    29.78S
SEDALIA        LGT RAIN  49  49 100 N9        29.85R
WHITEMAN AFB   HVY RAIN  46  46 100 N10       29.82S
OSAGE BEACH    LGT RAIN  57  56  96 NE3       29.79R

$$
MOZ051-052-059>065-300500-
...EAST CENTRAL MISSOURI...

CITY           SKY/WX    TMP DP  RH WIND       PRES   REMARKS
ST LOUIS INTL  LGT RAIN  54  51  90 E12       29.82F
SPIRIT OF STL  LGT RAIN  53  53 100 W7        29.84R
ST CHARLES     LGT RAIN  52  52 100 E7        29.80F

$$
MOZ072>076-082>087-097>100-106>115-300500-
...SOUTH CENTRAL AND SOUTHEAST MISSOURI...

CITY           SKY/WX    TMP DP  RH WIND       PRES   REMARKS
CAPE GIRARDEAU RAIN      64  62  93 E12       29.92R FOG
FARMINGTON     HVY RAIN  62  61  96 E7        29.87R
POPLAR BLUFF   HVY RAIN  66  65  96 E6        29.87F FOG

$$




USA.gov is the U.S. government's official web portal to all federal, state and local government web resources and services.